This demonstration page uses our WeatherBlox Daily Observations layout. Learn more.

Left ArrowRight Arrow

Hourly Observations for March 24, 2020

Temp ( °F °C ) Dew Point ( °F °C ) Humidity (%) Winds ( mph kmh ) Pressure ( in mb ) Visibility ( mi km ) Precip ( " mm )
12:53 am 00:53 Cloudy 51 10.6 39 3.9 64 64 S 13 20 30.05 1018 10 16 0.00 0.00
1:53 am 01:53 Cloudy 50 10 39 3.9 66 66 S 18 30 30.06 1018 10 16 0.00 0.00
2:53 am 02:53 Cloudy 49 9.4 39 3.9 69 69 SSW 10 17 30.07 1018 10 16 0.00 0.00
3:53 am 03:53 Cloudy 47 8.3 39 3.9 74 74 SSW 12 19 30.06 1018 10 16 0.00 0.00
4:53 am 04:53 Mostly Cloudy 47 8.3 38 3.3 71 71 SSW 9 15 30.07 1018 10 16 0.00 0.00
5:53 am 05:53 Cloudy 45 7.2 38 3.3 77 77 W 7 11 30.07 1018 10 16 0.00 0.00
6:53 am 06:53 Cloudy 45 7.2 38 3.3 77 77 WSW 7 11 30.07 1018 10 16 0.00 0.00
7:53 am 07:53 Cloudy with Light Rain 44 6.7 39 3.9 83 83 WSW 6 9 30.07 1018 10 16 0.00 0.00
8:53 am 08:53 Cloudy with Light Rain 45 7.2 40 4.4 83 83 WSW 6 9 30.08 1019 9 14 0.01 0.25
9:00 am 09:00 Cloudy with Light Rain 44 6.7 40 4.4 85 85 W 6 9 30.10 1019 10 16 0.00 0.00
9:53 am 09:53 Cloudy 47 8.3 42 5.6 83 83 SSW 10 17 30.08 1019 10 16 0.00 0.00
10:53 am 10:53 Cloudy 47 8.3 42 5.6 83 83 S 9 15 30.09 1019 10 16 0.00 0.00
11:11 am 11:11 Cloudy with Light Rain 47 8.3 42 5.6 83 83 S 16 26 30.10 1019 10 16 0.00 0.00
11:37 am 11:37 Cloudy 48 8.9 43 6.1 83 83 S 17 28 30.09 1019 10 16 0.00 0.00
11:53 am 11:53 Cloudy 48 8.9 43 6.1 83 83 S 15 24 30.07 1018 10 16 0.00 0.00
12:53 pm 12:53 Cloudy with Rain 48 8.9 43 6.1 83 83 S 8 13 30.04 1017 6 10 0.00 0.00
1:13 pm 13:13 Cloudy with Heavy Rain 47 8.3 43 6.1 86 86 WNW 10 17 30.05 1018 6 10 0.06 1.52
1:53 pm 13:53 Cloudy with Rain 47 8.3 42 5.6 83 83 SSW 9 15 30.02 1017 2 3 0.35 8.89
2:00 pm 14:00 Cloudy with Light Rain 47 8.3 42 5.6 83 83 S 6 9 30.03 1017 4 6 0.02 0.51
2:53 pm 14:53 Partly Cloudy 51 10.6 45 7.2 80 80 SSE 9 15 30.02 1017 10 16 0.02 0.51
3:17 pm 15:17 Mostly Cloudy 52 11.1 46 7.8 80 80 SSE 16 26 29.99 1015 10 16 0.00 0.00
3:34 pm 15:34 Partly Cloudy 53 11.7 45 7.2 74 74 S 14 22 29.97 1015 10 16 0.00 0.00
3:41 pm 15:41 Mostly Cloudy 53 11.7 45 7.2 74 74 SSE 15 24 29.98 1015 10 16 0.00 0.00
3:53 pm 15:53 Mostly Cloudy 53 11.7 45 7.2 74 74 S 13 20 29.97 1015 10 16 0.00 0.00
4:00 pm 16:00 Mostly Cloudy 52 11.1 43 6.1 72 72 S 16 26 29.98 1015 10 16 0.00 0.00
4:53 pm 16:53 Mostly Cloudy 52 11.1 43 6.1 72 72 S 13 20 29.95 1014 10 16 0.00 0.00
5:53 pm 17:53 Cloudy 51 10.6 43 6.1 74 74 SSE 13 20 29.94 1014 10 16 0.00 0.00
6:53 pm 18:53 Partly Cloudy 50 10 42 5.6 74 74 SE 7 11 29.95 1014 10 16 0.00 0.00
7:53 pm 19:53 Mostly Cloudy 49 9.4 42 5.6 77 77 NNE 3 6 29.98 1015 10 16 0.00 0.00
8:53 pm 20:53 Clear 46 7.8 41 5 83 83 E 5 7 29.98 1015 10 16 0.00 0.00
9:53 pm 21:53 Clear 45 7.2 40 4.4 83 83 SSE 3 6 30.00 1016 10 16 0.00 0.00
10:53 pm 22:53 Mostly Clear 44 6.7 39 3.9 83 83 Calm 30.02 1017 10 16 0.00 0.00
11:53 pm 23:53 Clear 41 5 38 3.3 89 89 N 3 6 30.02 1017 10 16 0.00 0.00

Powered by AerisWeather